Regional Weather Roundup
Issued by NWS Newport/Morehead, NC

Current Version | Previous Version | Text Only | Print | Product List | Glossary On
Versions: 1 2 3 4 5 6 7 8 9 10 11 12 13 14 15 16 17 18 19 20 21 22 23 24 25 26 27 28 29 30 31 32 33 34 35 36 37 38 39 40 41 42 43 44 45 46 47 48 49 50
000
ASUS42 KMHX 312225
RWRMHX
WEATHER ROUNDUP FOR EASTERN NORTH CAROLINA
NATIONAL WEATHER SERVICE NEWPORT/MOREHEAD CITY NC
600 PM EDT TUE MAY 31 2016

NOTE: "FAIR" INDICATES FEW OR NO CLOUDS BELOW 12,000 FEET
WITH NO SIGNIFICANT WEATHER AND/OR OBSTRUCTIONS TO VISIBILITY

NCZ015>017-031-032-045>047-102-103-312300-
NORTH COAST

CITY           SKY/WX    TMP DP  RH WIND       PRES   REMARKS
EDENTON        PTSUNNY   78  67  69 SE12      29.94F
ELIZABETH CITY MOSUNNY   77  67  71 E10       29.95S
KITTY HAWK     MOCLDY    74  67  77 NE5       29.94S
MANTEO         PTSUNNY   72  69  90 E12       29.95S

$$

NCZ045>047-081-094-103-104-312300-
CENTRAL COAST

CITY           SKY/WX    TMP DP  RH WIND       PRES   REMARKS
FRISCO         MOSUNNY   77  71  82 NE7       29.93S

$$

NCZ095-097-098-100-101-312300-
SOUTHERN COAST

CITY           SKY/WX    TMP DP  RH WIND       PRES   REMARKS
BEAUFORT       PTSUNNY   77  73  87 E8        29.90F
CEDAR ISLAND   NOT AVBL
JACKSONVILLE   CLOUDY    75  72  90 NE12      29.90R
PINEY ISLAND   PTCLDY   N/A N/A N/A E15       29.91
WILMINGTON     CLOUDY    75  73  93 NE10      29.88S


$$

NCZ011>013-027>030-043-044-078>080-089-090>093-098-312300-
COASTAL PLAIN

CITY           SKY/WX    TMP DP  RH WIND       PRES   REMARKS
AHOSKIE        PTSUNNY   79  67  66 NE3       29.93S
CLINTON        CLOUDY    76  73  90 E5        29.91S
ELIZABETHTOWN  CLOUDY    75  72  90 CALM      29.90S
GOLDSBORO      CLOUDY    73  73 100 E8        29.91S
GREENVILLE     LGT RAIN  73  73 100 SE5       29.95F
HAVELOCK       CLOUDY    75  72  90 NE7       29.91F
KENANSVILLE    CLOUDY    75  72  88 CALM      29.92S
KINSTON        CLOUDY    73  70  88 NE6       29.93S
NEW BERN       CLOUDY    74  71  91 E6        29.93S
RICHLANDS      PTSUNNY   77  73  87 NE13      29.91R
ROCKY MOUNT    CLOUDY    83  65  54 NE6       29.91F
WASHINGTON     CLOUDY    74  73  94 E5        29.93S
WHITEVILLE     LGT RAIN  73  71  92 NE6       29.90R

$$

AMZ130-135-150-152-154-156-158-170-250-252-270-ANZ085-086-088-633-658-670-312300-
MARINE OBSERVATIONS

STATION/POSITION TIME  TEMP    WIND        PRES    WAVE   SWELL
                       AIR SEA DIR/SP/G            HT/PER HT/PER
                 (UTC) (F)     (DEG/KT/KT) (MB)    (FT/S) (FT/S)
CHESAPEAKE LIGHT 2200   71      90/  8/  8 1015.0
64 E VA BEACH    2150   67 67   20/  8/ 12 1013.9    4/ 8   3/ 8
DUCK             2200      62              1013.5
2 E DUCK         2111      70                N/A     3/ 8
OREGON INLET     2200      75              1013.7
13E OREGON INLT  2200      70                N/A     4/ 8   3/ 8
HATTERAS CG      2200      75              1012.8
DIAMOND BUOY     2150   78 81  170/  4/  6 1013.1    4/ 8   3/ 8
CAPE LOOKOUT     2200   76      50/ 11/ 12 1012.0
BEAUFORT LAB     2200      75              1011.7
30 SE NEW RVR IN 2125      76                N/A     4/ 7
27 SE WRIGHTSVLE 2208   78 76  110/  6/ 10 1010.8
5 SE WRIGHTSVLE  2108   76 76   60/ 14/ 17 1011.8
225 S CAPE HAT   2150   77 77  150/ 12/ 14 1013.8    4/ 7   3/ 7
41 SE CHARLESTON 2150   77 78  260/ 10/ 12 1011.4    3/ 8   3/ 8

$$



USA.gov is the U.S. government's official web portal to all federal, state and local government web resources and services.